Temp
62 62 61 61 61 61 61 61 61 61 62 62 62 62 62 62 61 74 81 87 90 73 73 95 95 96 98 95 98 96 83 81 85 87 90 97 91 100 101 96 99 100 96 98 99
60 61 61 61 61 61 60 61 61 61 61 61 62 62 62 62 75 82 88 75 75 75 91 92 89 93 91 92 93 89 83 84 94 94 91 94 92 95 93 95 97 98 100 96 99
60 60 61 60 61 60 60 60 60 61 61 61 61 61 62 66 80 90 75 74 75 79 98 98 97 93 88 93 92 90 82 92 92 92 94 93 93 96 92 91 97 97 99 100 96
60 60 60 60 60 60 59 59 60 61 61 61 61 61 62 79 76 91 75 74 74 91 96 96 94 87 86 86 93 84 90 91 93 92 90 89 94 92 93 94 103 102 101 102 97
60 60 60 59 59 59 59 59 59 60 60 60 60 61 70 80 86 88 75 77 88 91 93 92 89 88 84 89 90 87 89 92 92 92 91 93 90 90 92 99 102 102 101 101 102
59 59 59 59 59 59 59 58 58 58 59 60 60 60 76 76 97 96 94 91 94 93 93 94 91 94 89 88 87 91 90 90 91 91 91 87 88 91 93 99 98 98 99 102 103
58 58 59 59 58 59 59 58 58 58 59 60 61 71 81 84 96 97 96 95 98 96 92 96 97 90 89 84 92 89 83 87 88 89 88 90 83 85 95 98 94 96 99 101 102
58 58 58 58 58 58 59 58 58 61 60 61 62 77 79 95 98 94 97 95 98 98 96 97 96 90 88 92 86 83 83 76 88 88 89 87 77 90 96 94 92 95 98 99 101
58 58 58 58 58 58 58 57 62 61 61 62 72 78 81 80 87 94 96 91 92 94 94 92 91 85 87 80 77 80 73 76 82 88 86 84 79 91 96 92 90 94 97 98 99
58 58 57 58 58 58 57 58 62 62 70 80 85 77 86 84 89 92 96 94 88 87 85 84 84 79 81 78 68 74 75 78 78 84 84 82 81 89 92 91 90 92 95 97 97
58 57 57 57 57 57 62 75 78 75 85 80 81 81 84 91 94 89 93 89 88 84 75 81 75 72 77 80 81 81 77 76 82 87 79 80 81 85 90 90 90 92 93 93 93
58 57 57 57 57 57 70 82 78 81 72 85 85 86 87 88 80 88 93 81 80 74 79 77 70 80 84 83 79 77 74 74 80 84 80 78 78 85 88 89 91 91 92 89 90
57 57 57 57 56 67 86 83 90 86 74 81 84 84 84 87 80 82 87 84 78 75 76 73 78 83 80 78 74 75 72 73 74 80 80 77 76 79 86 89 88 87 87 88 87
56 57 57 55 65 88 86 91 92 88 69 73 79 84 86 86 78 87 90 84 80 75 77 77 83 79 76 74 77 68 79 76 75 73 67 78 64 76 82 80 82 84 86 86 86
56 57 56 53 78 85 86 93 91 83 57 75 78 92 87 81 81 82 89 84 75 76 76 73 77 76 74 75 79 72 80 77 74 72 71 73 67 76 81 76 78 81 82 84 86
56 56 56 75 83 91 93 91 84 65 55 69 77 75 78 79 78 82 81 85 85 77 78 77 85 81 78 81 80 80 76 75 75 72 60 69 70 71 77 78 78 79 80 81 84
56 55 58 80 81 93 92 84 66 62 72 66 67 73 73 71 74 74 73 73 70 64 65 74 75 80 77 73 78 75 69 58 56 58 57 72 69 72 73 79 79 77 78 81 83
54 53 66 86 93 91 85 74 58 66 66 72 70 71 66 70 72 70 70 69 74 71 67 63 60 74 77 72 70 71 68 59 48 52 60 70 63 64 74 77 78 79 79 80 81
52 86 85 89 91 87 76 66 64 65 67 66 69 64 66 68 67 69 69 68 70 70 60 63 59 70 72 73 73 68 62 70 58 63 58 64 65 69 73 72 74 75 76 76 78
67 80 87 89 89 82 73 56 66 69 69 68 60 64 60 64 63 66 65 68 66 69 71 65 56 69 70 72 73 69 73 58 60 45 43 55 54 51 61 67 72 72 74 74 77
68 76 85 90 88 78 69 66 66 71 69 63 62 60 62 60 61 61 62 66 66 66 70 66 60 61 67 64 64 65 63 64 62 55 47 46 51 59 59 54 62 70 71 73 75
74 71 86 88 74 76 70 65 54 67 69 66 65 63 60 61 59 59 59 64 67 67 60 66 58 53 58 66 68 67 63 60 49 50 55 56 55 67 62 64 63 67 70 72 74
69 75 86 83 67 69 66 65 66 64 64 63 62 63 64 59 53 59 60 66 66 64 59 62 56 49 55 62 66 60 64 64 60 56 49 44 49 65 67 66 68 68 70 71 72
69 68 77 79 74 64 61 62 61 66 64 64 63 63 61 59 63 56 60 64 64 65 58 60 55 52 47 43 52 53 57 61 59 49 52 53 55 56 60 63 66 67 69 70 71
74 66 65 65 68 64 63 62 59 58 64 64 61 60 58 53 58 58 62 62 65 63 61 60 49 55 57 60 58 57 57 59 56 57 51 56 51 55 58 64 66 67 68 69 70
65 64 72 66 62 61 54 61 58 59 59 59 56 61 59 55 57 54 58 58 56 61 59 60 50 54 50 59 59 54 57 58 58 58 57 58 57 67 70 68 66 67 67 67 68
72 71 65 58 63 61 63 59 58 58 61 62 60 58 57 59 62 63 63 62 61 57 54 52 51 49 44 54 53 48 56 57 58 60 58 53 60 66 64 64 65 66 67 67 67
MSLP
1020.24 1019.71 1019.29 1018.88 1018.47 1018.04 1017.62 1017.24 1016.89 1016.54 1016.20 1015.88 1015.61 1015.38 1015.19 1015.01 1014.71 1013.86 1011.26 1009.25 1008.79 1009.75 1010.32 1009.30 1008.92 1008.14 1007.56 1006.44 1005.81 1005.65 1004.12 1002.08 1000.82 1000.23 1000.04 1000.24 1001.42 1001.26 1001.63 1001.95 1001.92 1001.94 1002.37 1003.42 1004.43
1020.47 1019.93 1019.40 1018.86 1018.34 1017.91 1017.48 1017.05 1016.67 1016.30 1016.00 1015.72 1015.45 1015.21 1015.03 1014.86 1013.63 1011.01 1008.62 1009.01 1009.53 1009.80 1009.47 1008.29 1007.87 1007.49 1006.63 1005.91 1005.43 1005.07 1003.57 1001.96 1000.99 1000.72 1000.97 1000.87 1001.58 1001.53 1001.76 1001.59 1001.32 1001.64 1002.52 1003.23 1003.26
1020.41 1019.81 1019.25 1018.75 1018.22 1017.72 1017.29 1016.86 1016.43 1016.04 1015.74 1015.52 1015.32 1015.08 1014.87 1014.53 1011.84 1007.84 1008.64 1008.97 1009.46 1009.69 1008.30 1007.55 1007.06 1006.78 1006.00 1005.21 1004.72 1004.28 1003.44 1002.03 1001.68 1002.64 1002.53 1001.88 1001.63 1002.02 1001.97 1001.33 1000.97 1000.96 1001.61 1002.86 1003.70
1020.29 1019.64 1019.00 1018.40 1017.85 1017.37 1016.96 1016.52 1016.14 1015.76 1015.48 1015.28 1015.16 1014.99 1014.70 1013.42 1009.18 1008.07 1009.05 1009.18 1009.59 1009.22 1008.02 1006.98 1006.52 1006.15 1005.32 1004.40 1004.28 1003.93 1003.41 1002.92 1002.51 1002.88 1003.29 1002.77 1002.46 1002.04 1002.01 1001.73 1000.95 1001.05 1001.93 1002.43 1003.16
1020.17 1019.47 1018.77 1018.18 1017.57 1016.95 1016.48 1016.11 1015.72 1015.41 1015.21 1015.04 1014.95 1014.86 1014.40 1011.22 1007.97 1008.61 1009.25 1009.49 1009.33 1009.03 1007.54 1006.91 1006.31 1005.75 1004.86 1004.19 1003.89 1003.38 1003.20 1002.83 1003.20 1003.21 1003.30 1003.21 1002.72 1002.29 1002.04 1001.93 1001.94 1001.75 1002.22 1002.21 1002.27
1020.02 1019.27 1018.58 1017.93 1017.33 1016.75 1016.17 1015.65 1015.21 1014.89 1014.77 1014.72 1014.67 1014.76 1013.17 1009.34 1007.29 1007.74 1008.21 1008.64 1008.17 1008.03 1007.25 1006.67 1006.02 1005.60 1004.76 1004.30 1003.71 1003.20 1003.22 1003.08 1002.93 1003.10 1003.21 1003.27 1002.82 1002.52 1001.92 1001.88 1002.09 1001.93 1002.04 1001.71 1001.64
1019.89 1019.08 1018.29 1017.54 1016.92 1016.31 1015.76 1015.23 1014.69 1014.23 1014.07 1014.19 1014.31 1013.74 1010.93 1008.04 1007.55 1007.59 1007.83 1007.79 1007.46 1007.39 1006.79 1006.62 1006.12 1005.99 1005.48 1004.72 1004.06 1003.65 1003.29 1002.95 1002.67 1002.79 1002.87 1003.01 1002.53 1001.80 1001.53 1001.53 1001.75 1001.90 1001.79 1001.69 1001.62
1019.70 1018.89 1018.04 1017.11 1016.43 1015.88 1015.35 1014.91 1014.30 1013.67 1013.70 1013.93 1014.15 1012.93 1009.04 1007.50 1007.65 1007.70 1007.47 1007.41 1007.35 1007.31 1006.95 1006.72 1006.76 1006.58 1005.66 1004.82 1004.43 1003.73 1003.29 1002.21 1001.35 1001.98 1002.52 1002.91 1001.36 1000.76 1001.19 1001.52 1001.77 1001.68 1001.55 1001.63 1001.97
1019.50 1018.70 1017.81 1016.82 1016.03 1015.49 1015.10 1014.58 1014.05 1013.79 1013.75 1013.89 1013.38 1011.55 1007.73 1008.47 1007.72 1007.25 1007.27 1007.13 1007.49 1007.48 1007.63 1007.76 1007.28 1006.56 1005.74 1005.01 1003.97 1003.14 1002.14 1001.35 1000.69 1001.47 1002.07 1002.38 1001.26 1000.63 1000.59 1001.44 1001.77 1001.54 1001.35 1001.70 1002.09
1019.26 1018.49 1017.57 1016.59 1015.71 1015.21 1014.85 1014.47 1014.17 1014.05 1013.43 1012.56 1011.04 1009.99 1007.49 1006.77 1007.01 1006.96 1007.25 1007.02 1007.32 1007.49 1007.46 1007.47 1006.76 1005.83 1005.07 1004.08 1002.46 1001.52 1001.27 1001.07 1000.33 1001.14 1002.20 1001.61 1001.50 1000.61 1000.80 1001.54 1001.76 1001.76 1001.73 1001.69 1002.48
1019.12 1018.29 1017.39 1016.43 1015.45 1014.89 1014.35 1013.71 1013.11 1012.34 1010.17 1009.31 1008.56 1007.69 1006.95 1006.75 1006.96 1006.73 1007.18 1007.17 1007.24 1007.15 1006.60 1006.45 1005.64 1004.30 1003.92 1003.33 1002.70 1001.66 1001.57 1000.75 1000.52 1000.98 1001.99 1001.65 1001.06 1000.78 1000.92 1001.35 1001.48 1001.57 1001.93 1002.45 1003.20
1019.01 1017.99 1017.14 1016.22 1015.22 1014.43 1014.02 1011.83 1012.25 1011.95 1009.99 1008.15 1007.88 1006.99 1007.21 1007.07 1006.34 1006.14 1006.85 1006.99 1006.75 1006.16 1006.14 1005.37 1004.55 1003.99 1003.43 1002.97 1002.70 1002.71 1002.32 1001.88 1001.57 1001.46 1002.09 1002.00 1001.25 1000.92 1000.85 1001.04 1001.43 1001.59 1001.87 1003.24 1004.43
1019.06 1017.92 1016.78 1015.99 1014.96 1014.05 1012.03 1011.86 1011.43 1011.27 1009.77 1007.44 1007.21 1006.73 1006.68 1006.69 1006.03 1005.72 1006.53 1006.31 1005.84 1005.67 1005.03 1004.27 1003.40 1003.10 1003.44 1002.85 1003.28 1002.90 1002.53 1002.09 1001.76 1001.46 1002.45 1002.21 1000.90 1000.61 1000.70 1000.86 1001.82 1003.00 1003.58 1004.57 1005.15
1019.14 1017.96 1016.88 1015.57 1015.09 1012.17 1011.03 1011.27 1011.00 1011.14 1008.57 1007.01 1006.34 1006.11 1006.08 1006.10 1005.93 1006.31 1006.08 1005.98 1005.42 1004.77 1004.49 1003.67 1003.35 1003.03 1003.36 1002.91 1003.05 1002.79 1002.71 1002.79 1002.27 1002.07 1001.33 1001.39 1000.09 999.58 1000.27 1001.73 1002.90 1003.75 1004.23 1004.71 1005.14
1019.00 1018.05 1016.78 1016.71 1014.55 1011.59 1011.63 1011.03 1011.04 1011.03 1007.50 1007.15 1006.42 1006.56 1005.89 1005.77 1006.00 1005.53 1006.26 1005.81 1005.01 1004.35 1004.53 1003.11 1002.80 1002.94 1002.59 1002.97 1003.04 1002.88 1002.79 1002.52 1002.98 1002.39 1001.88 1000.79 1000.70 999.02 999.67 1001.36 1002.87 1004.13 1005.00 1005.41 1005.57
1018.55 1017.65 1016.88 1014.32 1013.23 1011.46 1011.25 1011.08 1011.18 1009.45 1007.02 1007.02 1006.96 1006.62 1005.85 1005.84 1006.03 1005.75 1005.85 1006.04 1005.15 1004.81 1004.03 1003.22 1002.73 1002.59 1002.79 1002.95 1003.13 1003.46 1003.40 1003.22 1002.95 1002.69 1001.64 1001.01 1000.44 999.81 999.28 1000.33 1002.51 1004.80 1005.81 1006.01 1006.09
1018.17 1017.21 1016.89 1014.30 1012.27 1011.61 1011.24 1010.41 1008.96 1007.11 1007.86 1007.64 1007.69 1007.53 1006.93 1006.38 1006.21 1006.24 1005.75 1005.21 1004.91 1004.41 1003.80 1002.99 1003.06 1003.36 1004.20 1003.82 1003.78 1004.26 1003.78 1003.17 1002.72 1002.16 1001.10 1001.20 1000.88 1000.56 1001.74 1002.04 1003.48 1005.30 1006.17 1006.48 1006.75
1017.93 1016.53 1014.70 1013.27 1012.15 1011.73 1011.04 1009.41 1008.04 1007.95 1008.07 1008.53 1008.41 1007.95 1007.41 1007.41 1006.49 1006.87 1006.25 1005.54 1005.42 1005.54 1004.35 1003.10 1002.81 1003.02 1004.10 1004.62 1003.90 1003.44 1003.75 1003.13 1002.13 1001.57 1001.01 1001.08 1000.46 1001.78 1003.59 1004.65 1005.30 1006.19 1006.72 1007.20 1007.42
1017.39 1013.92 1012.68 1012.30 1012.05 1011.82 1010.55 1008.23 1008.14 1009.02 1009.63 1009.35 1008.64 1008.00 1007.40 1007.99 1008.22 1007.35 1006.70 1006.50 1006.64 1007.41 1006.43 1004.55 1004.12 1005.31 1005.74 1005.61 1005.48 1004.52 1004.15 1004.13 1004.40 1003.83 1003.18 1002.71 1003.21 1004.70 1005.28 1005.99 1006.43 1006.68 1007.20 1007.98 1008.36
1017.43 1013.76 1011.85 1012.13 1011.76 1011.29 1009.56 1009.59 1009.53 1010.45 1010.64 1010.16 1009.38 1009.18 1008.62 1008.45 1008.75 1008.03 1007.72 1007.83 1008.19 1008.89 1008.66 1006.97 1006.31 1006.11 1006.29 1006.77 1006.05 1005.71 1005.09 1005.47 1005.49 1005.50 1004.90 1004.69 1005.33 1006.76 1006.77 1007.12 1006.94 1007.07 1007.69 1008.59 1009.04
1017.07 1012.96 1011.81 1011.76 1011.14 1010.07 1008.84 1009.99 1010.86 1011.35 1011.72 1011.25 1010.47 1010.35 1010.06 1009.91 1009.99 1009.46 1009.16 1009.21 1009.97 1010.06 1009.58 1008.94 1008.46 1006.70 1006.89 1006.54 1005.74 1005.88 1006.02 1006.19 1006.63 1007.81 1006.59 1006.37 1006.45 1008.41 1009.07 1010.31 1008.09 1008.24 1009.19 1009.49 1009.69
1015.71 1012.17 1011.99 1011.71 1010.32 1010.30 1010.10 1011.65 1013.08 1011.90 1012.21 1011.94 1011.89 1011.40 1011.22 1011.11 1010.85 1010.42 1010.05 1009.91 1011.29 1011.30 1010.53 1009.67 1009.67 1008.03 1007.20 1007.40 1007.85 1007.18 1006.72 1007.12 1007.83 1007.61 1007.57 1007.22 1007.33 1008.53 1009.38 1010.34 1010.69 1010.11 1010.68 1010.52 1010.61
1016.05 1013.13 1012.26 1011.78 1010.30 1010.46 1012.00 1012.22 1012.71 1012.65 1012.54 1012.35 1012.08 1012.26 1012.10 1012.02 1011.82 1011.13 1011.26 1011.67 1012.30 1011.95 1011.62 1011.35 1010.26 1009.09 1007.63 1007.50 1007.68 1008.14 1007.75 1007.85 1008.26 1009.13 1008.71 1008.68 1009.10 1010.07 1010.25 1010.52 1010.70 1010.67 1010.68 1010.89 1011.39
1016.68 1012.91 1011.84 1012.09 1012.67 1012.60 1012.39 1012.21 1012.52 1013.33 1013.28 1013.34 1012.87 1012.99 1012.71 1012.34 1011.96 1011.96 1011.52 1011.75 1012.72 1012.68 1013.20 1013.08 1011.69 1010.48 1009.06 1010.23 1010.32 1009.06 1008.58 1008.65 1008.66 1008.75 1008.51 1008.67 1008.74 1010.62 1010.83 1010.69 1010.50 1010.87 1011.17 1011.42 1011.57
1016.61 1014.84 1015.04 1012.64 1012.53 1013.49 1013.49 1013.18 1012.99 1013.03 1013.73 1013.72 1013.13 1013.36 1013.10 1012.87 1012.04 1011.59 1011.57 1011.83 1012.19 1012.61 1013.22 1013.06 1012.23 1011.28 1010.36 1009.76 1009.63 1009.69 1009.34 1008.97 1008.95 1008.93 1008.78 1008.66 1009.78 1010.72 1010.76 1010.37 1010.74 1011.36 1011.82 1011.92 1011.87
1017.51 1016.52 1015.45 1014.50 1014.61 1014.18 1014.29 1013.27 1013.79 1013.81 1014.30 1013.52 1013.97 1013.63 1013.98 1013.72 1013.23 1012.74 1012.76 1012.82 1012.87 1012.84 1012.89 1012.94 1012.48 1011.85 1011.11 1010.19 1009.84 1009.84 1009.63 1009.31 1009.18 1009.14 1009.04 1008.96 1008.79 1009.01 1009.59 1010.49 1011.01 1011.33 1011.61 1011.98 1012.30
1018.49 1017.85 1017.19 1015.11 1014.26 1014.35 1013.61 1014.19 1014.47 1015.16 1014.85 1014.80 1014.81 1014.70 1014.44 1014.25 1014.31 1014.36 1014.23 1013.93 1013.71 1013.51 1013.57 1013.78 1013.22 1012.52 1011.48 1010.77 1010.52 1009.80 1009.11 1009.05 1008.93 1008.99 1009.15 1009.05 1009.10 1009.50 1009.83 1010.77 1011.23 1011.49 1011.98 1012.31 1012.58
Wind_Speed
20 20 18 18 17 17 17 17 15 14 13 12 11 10 9 9 12 11 14 4 11 12 5 13 15 14 14 15 13 9 13 14 17 12 10 3 5 14 1 6 10 2 5 8 9
19 19 19 19 18 16 17 17 16 15 14 13 12 10 9 8 14 20 12 11 9 10 15 17 16 15 14 14 10 14 12 18 10 9 3 5 5 9 6 12 14 10 10 3 6
20 20 20 20 19 17 17 17 16 15 14 13 12 11 9 11 15 4 8 12 10 13 19 15 14 15 17 14 17 15 17 18 6 6 10 14 10 7 12 14 11 11 6 10 7
22 22 23 22 22 20 19 18 17 16 14 13 12 11 9 13 6 9 7 9 8 16 18 15 13 16 17 17 16 19 17 14 13 4 11 12 13 16 9 15 15 1 3 6 11
21 24 23 23 22 21 20 19 18 17 15 13 11 9 9 10 13 12 10 8 13 16 17 15 16 16 17 15 15 17 16 12 11 13 12 13 14 15 16 13 13 9 7 13 11
22 23 24 24 22 21 20 19 17 16 14 11 9 7 10 16 6 9 11 12 15 17 15 15 12 14 17 15 15 13 14 19 10 14 14 15 17 16 18 12 13 9 12 11 12
23 23 24 23 22 21 19 17 16 15 11 11 10 8 12 15 4 3 11 14 13 15 14 15 13 10 9 17 15 14 17 16 16 14 15 10 18 19 16 13 8 14 12 8 5
24 24 24 24 22 20 17 15 15 8 6 10 9 10 9 6 6 7 10 13 10 11 11 7 9 14 19 15 8 14 17 17 18 19 15 14 16 19 17 15 11 14 14 8 8
25 25 24 24 22 18 13 13 7 2 6 9 10 10 8 4 7 10 10 11 10 9 8 5 11 15 16 16 14 16 15 20 15 6 10 14 15 19 11 8 11 11 12 10 6
27 26 25 24 21 16 10 9 1 6 8 9 8 8 7 3 5 3 10 11 12 11 12 13 11 15 16 14 16 17 19 17 12 16 13 14 17 16 8 13 12 12 12 9 6
28 26 25 24 22 15 10 7 6 8 11 9 7 8 4 4 8 7 10 11 13 13 16 16 14 17 20 20 21 22 14 14 10 10 7 15 15 13 12 13 12 13 9 8 2
28 28 26 24 23 18 10 10 7 7 9 1 2 4 0 4 6 12 15 13 16 17 19 17 17 19 17 18 15 18 14 17 15 11 9 15 18 15 13 12 14 13 10 4 4
27 28 29 24 23 9 5 11 7 3 9 7 2 3 3 4 2 7 12 16 15 19 20 20 17 14 21 14 15 16 18 16 16 11 10 17 19 14 16 9 6 0 4 5 1
26 28 28 30 6 8 6 12 7 0 8 5 4 5 2 2 7 1 6 17 19 21 20 21 20 14 13 17 16 18 17 16 16 14 13 22 14 21 17 12 12 9 9 5 3
27 26 27 10 11 7 10 10 7 5 6 5 4 6 2 7 8 10 4 12 21 19 16 20 22 20 19 16 17 15 17 12 16 18 16 16 10 17 21 20 16 8 6 5 9
29 28 24 4 11 9 11 9 6 10 3 4 2 7 9 2 1 5 6 8 10 19 23 21 19 15 15 17 13 10 13 17 13 15 17 20 18 12 13 22 19 11 7 6 8
31 29 15 8 7 13 10 8 9 6 4 5 5 8 12 4 7 6 5 11 12 12 18 21 21 12 4 12 12 13 14 11 15 15 17 18 20 11 11 12 17 13 11 8 6
33 29 6 8 10 10 8 10 7 7 4 3 7 11 7 8 8 6 10 13 10 12 16 15 17 20 14 17 18 14 18 15 20 14 14 14 21 11 15 12 12 11 10 8 7
34 4 7 5 11 7 10 9 8 6 4 8 12 7 5 5 4 15 15 11 9 11 14 13 5 5 5 5 10 16 14 9 11 18 15 9 12 10 14 13 14 13 10 7 6
10 8 0 11 8 8 10 5 2 3 7 6 10 2 9 10 10 13 8 6 3 3 11 10 10 13 11 9 10 12 8 8 10 13 18 15 7 6 3 5 10 12 9 7 3
7 7 8 10 6 10 6 6 2 5 7 5 6 8 11 10 8 11 9 6 6 12 11 12 9 8 8 10 14 8 13 14 13 7 12 13 10 7 4 3 12 11 7 6 3
7 6 7 8 7 2 4 5 3 4 2 5 5 7 7 7 11 11 9 7 8 11 12 9 8 14 15 4 14 12 13 2 6 13 13 14 11 12 13 9 3 4 2 6 6
7 5 4 10 4 3 3 3 3 3 2 3 4 3 4 9 5 4 5 4 7 11 10 12 8 11 17 18 14 13 16 14 13 14 18 12 2 5 4 3 4 1 3 3 5
7 4 3 2 2 7 3 3 4 3 8 6 7 4 9 10 9 7 8 2 2 10 5 7 11 14 13 5 8 12 4 10 10 11 17 18 17 9 7 9 4 2 2 5 5
2 5 5 5 4 7 4 2 7 4 5 4 6 6 7 9 11 12 9 7 8 8 8 7 14 15 14 12 7 12 15 13 13 14 15 13 3 16 18 17 4 2 7 8 9
6 6 1 8 5 7 5 2 6 2 5 5 5 10 6 11 11 14 14 12 10 4 9 7 11 12 12 13 14 10 14 13 15 13 14 13 13 6 8 3 5 7 6 6 9
3 3 6 2 5 7 3 4 4 3 6 5 8 8 10 9 11 11 12 12 13 11 11 7 10 10 13 5 8 13 16 15 17 16 12 12 10 10 3 3 5 6 8 9 8
Wind_Direction
350 348 344 341 338 336 333 330 327 325 320 313 310 308 299 292 285 240 251 274 191 150 181 198 217 224 237 240 238 244 263 251 252 246 244 232 243 245 282 268 232 189 315 43 126
349 344 340 337 334 332 329 326 322 318 316 310 306 303 296 294 271 262 234 129 143 165 207 202 208 213 221 227 212 233 232 252 296 336 303 292 240 275 247 249 225 190 130 73 143
345 341 337 335 331 328 325 321 316 311 308 305 299 297 292 276 275 197 113 141 153 200 230 206 212 214 230 223 218 226 250 278 326 269 285 282 263 252 252 256 252 231 132 147 190
339 335 334 333 330 326 322 317 310 305 302 298 295 293 291 258 290 72 124 139 174 212 236 219 225 214 234 233 234 241 259 264 278 223 252 256 266 269 262 265 276 202 320 266 179
333 331 330 330 327 323 319 313 306 300 295 287 284 286 264 229 259 118 139 160 190 207 222 215 225 226 240 245 239 245 251 263 262 255 247 265 256 266 262 251 264 260 258 245 212
334 330 329 329 325 321 316 311 303 296 284 269 260 267 245 258 78 133 179 174 182 204 213 223 229 233 259 274 256 248 256 260 240 246 239 243 253 247 254 258 246 252 244 240 220
334 331 328 325 322 321 316 311 306 291 262 229 222 229 257 255 26 178 184 193 194 211 217 226 246 260 237 262 260 258 261 256 245 238 244 237 253 245 243 253 234 239 229 244 267
336 333 329 325 323 321 318 313 308 316 212 197 200 228 267 59 323 232 204 199 206 225 256 256 242 263 255 273 270 244 245 254 231 210 223 231 258 222 227 220 237 243 228 209 219
337 335 332 328 327 328 319 308 309 111 161 174 196 232 259 143 212 210 207 203 202 207 223 284 250 240 237 249 243 223 247 226 245 180 239 206 249 252 172 191 240 248 237 215 187
337 336 334 332 328 327 300 264 34 185 193 214 275 225 226 39 76 211 201 231 189 201 215 215 221 226 233 220 236 226 214 248 237 165 219 230 236 270 175 214 223 234 235 224 211
335 336 335 332 325 322 299 198 223 186 228 324 333 308 277 263 162 181 189 211 201 203 220 206 218 221 233 227 250 275 284 294 248 231 213 240 248 235 230 227 224 230 214 214 68
334 335 334 331 322 314 278 31 32 325 297 268 206 250 189 320 257 212 165 204 210 225 220 236 231 251 239 255 242 255 260 257 262 253 218 250 242 248 244 226 230 229 171 115 191
334 334 330 330 320 285 359 22 311 296 259 145 81 346 24 248 253 224 188 223 223 229 237 236 235 230 247 241 244 241 249 249 254 215 247 263 255 223 230 197 103 121 76 167 175
334 331 330 324 302 328 40 350 328 316 260 125 167 97 214 240 224 352 260 245 231 241 241 252 239 253 250 255 240 248 236 253 266 246 240 206 252 215 207 177 182 174 192 151 108
331 329 325 330 312 349 340 337 335 227 252 69 60 337 261 323 348 154 296 240 246 246 241 251 238 244 251 251 239 246 270 224 247 255 260 241 241 293 171 180 176 166 125 127 84
330 327 328 194 234 339 323 321 244 230 101 124 315 340 309 47 18 313 240 233 256 255 260 251 268 230 260 239 254 287 263 258 242 247 242 244 251 232 217 182 144 139 130 95 83
326 322 310 306 326 323 317 254 241 280 134 80 343 323 307 315 296 312 295 226 246 228 236 235 250 216 248 260 226 238 240 239 225 226 243 244 235 254 88 81 134 137 129 105 98
324 315 189 274 311 320 286 250 259 72 35 33 303 302 286 7 293 301 281 265 201 294 282 266 235 200 177 247 261 231 233 246 251 247 260 278 228 129 113 117 121 118 101 101 81
314 257 255 353 316 296 265 247 27 26 6 326 299 251 236 223 300 299 278 289 17 341 313 290 292 187 317 268 266 252 260 281 312 276 262 238 104 126 142 145 149 139 120 97 78
313 283 186 325 312 265 256 9 1 14 318 302 292 3 314 325 317 310 311 49 331 319 329 318 281 195 160 250 225 254 307 254 238 272 272 267 197 338 301 158 159 131 121 93 23
258 271 53 331 272 247 300 51 301 77 328 310 328 298 296 310 300 301 293 82 32 316 310 296 277 248 263 221 248 192 235 231 249 214 253 266 281 137 146 54 342 63 58 50 335
284 273 26 326 246 322 1 10 23 280 218 282 286 283 290 313 289 283 283 342 29 315 292 338 309 274 230 309 324 304 287 23 294 220 234 269 257 139 156 155 212 57 79 60 15
300 304 57 294 312 25 103 226 296 270 303 290 277 241 324 288 297 224 304 40 332 299 3 352 247 265 243 210 187 248 259 255 252 265 268 258 241 337 55 168 140 345 38 20 346
283 289 126 132 91 318 1 171 247 164 282 281 292 267 274 266 233 263 281 190 219 296 30 307 279 277 290 128 223 282 258 281 280 262 260 254 260 211 224 267 195 237 308 321 339
284 57 6 324 54 327 285 327 277 246 213 248 239 251 302 294 285 279 274 303 271 217 252 255 276 277 280 290 278 284 284 278 246 260 268 264 309 191 212 227 140 307 289 299 305
318 341 347 277 302 274 142 223 309 314 273 272 252 306 286 281 287 310 318 297 301 321 267 242 265 276 286 272 267 276 275 268 262 267 270 276 275 292 292 44 284 249 264 291 306
43 218 272 198 236 267 26 358 330 318 268 300 318 308 284 324 339 315 300 294 286 279 288 290 274 275 270 332 300 266 257 256 254 245 252 261 275 21 48 227 269 307 303 286 317